SL-16 DEB, 22338

Orbit data source: Space-Track

SL-16 DEB, 22338 is space debris in LEO originally from a launch on Fri, 25 Dec 1992 UTC launched from the Tyuratam Missile And Space Complex (TTMTR). Debris objects in space refer to the collection of defunct objects orbiting the Earth. Examples of debris include non-operational satellites, rocket bodies, and fragments generated from explosions, collisions, or faulty payload assembly.

Loading next visibility...
SL-16 DEB details
Identifier
22338, 1992-093AB
Orbit
LEO
Last TLE update13 hours ago
Origin
Flag of CISRVSN RF (CIS)
ManufacturerUnknown
MissionSpacecraft
Bus & MotorUnknown
MassUnknown
Launch date (UTC)
1992-12-25 (32 years ago)
Launch vehicleUnknown
Launch site
Tyuratam Missile And Space Complex (TTMTR)
Object type
Payload
Rocket body
Debris
Shape & HBRUnknown
Radar Cross SectionSmall (<0.1 m²)

Expand to show TLE details & history

TLE from 13 hours ago
0 SL-16 DEB
1 22338U 92093AB  24361.18569483  .00007540  00000-0  11778-2 0  9993
2 22338  70.6170 261.3976 0074296 200.2365 312.4326 14.71295385676219
Epoch: 2024-12-26T04:27Z
Definitive object data (Epoch: 2024-12-26T04:27:24.033Z)
Latitude26.29921°
Longitude-90.5795°
Altitude624.581 km
Speed7.568 km/s
True Right ascension04h 45m 45s
True Declination26° 09' 37"
Sunlit
Object was in full shadow at TLE epoch
Visualization TLE readout
Latitude-47.34319°
Longitude-59.61118°
Altitude630.054 km
Speed7.566 km/s
Apparent Right ascension06h 01m 11s
Apparent Declination-44° 14' 51"
Sunlit
Object is in daylight
Visualization observer readout
Local Sidereal Time17:14:11
Azimuth239.728° WSW
Elevation-80.274°
Doppler factor1
Orbital elements
Apogee altitude707.097 km
Perigee altitude602.592 km
Semi-major axis7,032.982 km
Eccentricity0.0074296
Inclination70.617°
RAAN261.3976°
Arg. of periapsis200.2365°
True anomaly311.80028°
Mean anomaly312.4326°
Eccentric anomaly312.11684°
Mean motion3.67988 °/min
BSTAR0.0011778
Orbital period97.83 mins
Loading maneuver chart data...
Loading historical data...
Loading historical data...
Loading historical data...
Loading historical data...
Loading historical data...
Loading historical data...
Loading historical data...

SL-16 DEB Visibility forecast

Observer location: undefined°, undefined

Span
Click to sort rows by Start time (UTC) header in descending order
Start Az.
Max El. time (UTC)
Max El. Az.
Max El.
End time (UTC)
End Az.
9 mins2024-12-26 18:33:47.135Z181.116° SSW2024-12-26 18:37:47.135Z126.512° SE36.195°2024-12-26 18:42:47.135Z35.392° NE
5 mins2024-12-26 20:16:47.135Z277.61° WNW2024-12-26 20:18:47.135Z309.478° NW19.174°2024-12-26 20:21:47.135Z350.273° N
7 mins2024-12-27 04:48:47.135Z330.961° NNW2024-12-27 04:51:47.135Z284.024° WNW43.297°2024-12-27 04:55:47.135Z165.241° S
|